When you browse on this site, cookies collect data to enhance your experience and personalize the content and advertising you see.
Visit our Privacy Policy to learn more. By continuing to use the site, you agree to this use of cookies and data.
  • In Hungary
  • List of Countries
  • For 7 days
  • Water Temperature
  • Satellite Maps
  • Weather Map
  • News
  • Weather Widgets
  • user-avatar
    Login

    Hourly Weather Bytów

    Today, 18 March, Monday

    Time Temperature Precipitation Wind Pressure Humidity
    00:00 +4°C° 0 mm 4 mps 737 mmHg 82%
    01:00 +2°C° 0 mm 5 mps 737 mmHg 81%
    02:00 +2°C° 0 mm 5 mps 737 mmHg 81%
    03:00 +1°C° 0 mm 5 mps 737 mmHg 80%
    04:00 +1°C° 0 mm 6 mps 737 mmHg 79%
    05:00 +1°C° 0 mm 6 mps 737 mmHg 79%
    06:00 +1°C° 0 mm 6 mps 737 mmHg 79%
    07:00 +1°C° 0 mm 6 mps 738 mmHg 78%
    08:00 0°C° 0 mm 7 mps 738 mmHg 75%
    09:00 +2°C° 0 mm 7 mps 738 mmHg 72%
    10:00 +1°C° 0 mm 8 mps 738 mmHg 70%
    11:00 +2°C° 0.1 mm 8 mps 739 mmHg 69%
    12:00 +2°C° 0.1 mm 8 mps 739 mmHg 67%
    13:00 +2°C° 0.1 mm 8 mps 739 mmHg 66%
    14:00 +2°C° 0.3 mm 8 mps 739 mmHg 67%
    15:00 +2°C° 0.3 mm 8 mps 740 mmHg 68%
    16:00 +2°C° 0.3 mm 8 mps 740 mmHg 69%
    17:00 +3°C° 0.4 mm 7 mps 740 mmHg 71%
    18:00 +3°C° 0.4 mm 6 mps 740 mmHg 73%
    19:00 +2°C° 0.4 mm 6 mps 741 mmHg 75%
    20:00 +2°C° 0.1 mm 5 mps 741 mmHg 78%
    21:00 +1°C° 0.1 mm 5 mps 742 mmHg 81%
    22:00 +1°C° 0.1 mm 4 mps 742 mmHg 84%
    23:00 0°C° 0 mm 4 mps 743 mmHg 84%

    Tomorrow, 19 March, Tuesday

    Time Temperature Precipitation Wind Pressure Humidity
    00:00 0°C° 0 mm 4 mps 743 mmHg 84%
    01:00 -1°C° 0 mm 4 mps 744 mmHg 84%
    02:00 -1°C° 0 mm 4 mps 744 mmHg 86%
    03:00 -1°C° 0 mm 4 mps 745 mmHg 87%
    04:00 -1°C° 0 mm 4 mps 745 mmHg 89%
    05:00 -1°C° 0 mm 4 mps 746 mmHg 89%
    06:00 -1°C° 0 mm 4 mps 747 mmHg 89%
    07:00 -1°C° 0 mm 4 mps 747 mmHg 89%
    08:00 0°C° 0 mm 5 mps 748 mmHg 80%
    09:00 +2°C° 0 mm 5 mps 749 mmHg 71%
    10:00 +3°C° 0 mm 5 mps 749 mmHg 62%
    11:00 +3°C° 0 mm 5 mps 750 mmHg 58%
    12:00 +5°C° 0 mm 5 mps 750 mmHg 54%
    13:00 +5°C° 0 mm 5 mps 751 mmHg 50%
    14:00 +5°C° 0 mm 5 mps 751 mmHg 50%
    15:00 +3°C° 0 mm 5 mps 752 mmHg 50%
    16:00 +3°C° 0 mm 5 mps 752 mmHg 50%
    17:00 +3°C° 0 mm 4 mps 752 mmHg 56%
    18:00 +2°C° 0 mm 3 mps 753 mmHg 63%
    19:00 +2°C° 0 mm 2 mps 753 mmHg 69%
    20:00 +1°C° 0 mm 2 mps 754 mmHg 73%
    21:00 +1°C° 0 mm 2 mps 755 mmHg 76%
    22:00 -1°C° 0 mm 2 mps 755 mmHg 80%
    23:00 -1°C° 0 mm 2 mps 755 mmHg 81%

    Day after tomorrow, 20 March, Wednesday

    Time Temperature Precipitation Wind Pressure Humidity
    00:00 -1°C° 0 mm 2 mps 756 mmHg 83%
    01:00 -1°C° 0 mm 2 mps 756 mmHg 84%
    02:00 -1°C° 0 mm 2 mps 756 mmHg 82%
    03:00 -1°C° 0 mm 2 mps 756 mmHg 81%
    04:00 -1°C° 0 mm 3 mps 757 mmHg 79%
    05:00 -1°C° 0 mm 3 mps 757 mmHg 75%
    06:00 0°C° 0 mm 3 mps 757 mmHg 71%
    07:00 0°C° 0 mm 3 mps 757 mmHg 68%
    08:00 +1°C° 0 mm 4 mps 757 mmHg 63%
    09:00 +4°C° 0 mm 4 mps 758 mmHg 59%
    10:00 +5°C° 0 mm 5 mps 758 mmHg 54%
    11:00 +7°C° 0 mm 5 mps 758 mmHg 54%
    12:00 +8°C° 0 mm 5 mps 758 mmHg 54%
    13:00 +9°C° 0 mm 6 mps 757 mmHg 54%
    14:00 +9°C° 0 mm 6 mps 757 mmHg 56%
    15:00 +9°C° 0 mm 6 mps 757 mmHg 58%
    16:00 +9°C° 0 mm 6 mps 757 mmHg 60%
    17:00 +8°C° 0 mm 6 mps 757 mmHg 66%
    18:00 +8°C° 0 mm 5 mps 757 mmHg 72%
    19:00 +7°C° 0 mm 5 mps 757 mmHg 77%
    20:00 +7°C° 0.1 mm 5 mps 757 mmHg 81%
    21:00 +7°C° 0.1 mm 5 mps 757 mmHg 85%
    22:00 +7°C° 0.1 mm 5 mps 757 mmHg 89%
    23:00 +6°C° 0.1 mm 5 mps 757 mmHg 90%

    21 March, Thursday

    Time Temperature Precipitation Wind Pressure Humidity
    00:00 +6°C° 0.1 mm 4 mps 757 mmHg 91%
    01:00 +6°C° 0.1 mm 4 mps 757 mmHg 92%
    02:00 +5°C° 0 mm 4 mps 757 mmHg 92%
    03:00 +5°C° 0 mm 4 mps 757 mmHg 93%
    04:00 +5°C° 0 mm 3 mps 757 mmHg 93%
    05:00 +5°C° 0 mm 3 mps 758 mmHg 93%
    06:00 +5°C° 0 mm 3 mps 758 mmHg 92%
    07:00 +4°C° 0 mm 3 mps 758 mmHg 92%
    08:00 +5°C° 0 mm 4 mps 758 mmHg 86%
    09:00 +6°C° 0 mm 4 mps 758 mmHg 81%
    10:00 +7°C° 0 mm 4 mps 759 mmHg 76%
    11:00 +8°C° 0 mm 4 mps 759 mmHg 72%
    12:00 +10°C° 0 mm 4 mps 759 mmHg 69%
    13:00 +11°C° 0 mm 4 mps 759 mmHg 65%
    14:00 +11°C° 0 mm 4 mps 759 mmHg 67%
    15:00 +11°C° 0 mm 4 mps 758 mmHg 68%
    16:00 +11°C° 0 mm 4 mps 758 mmHg 70%
    17:00 +10°C° 0 mm 3 mps 758 mmHg 77%
    18:00 +9°C° 0 mm 3 mps 758 mmHg 83%
    19:00 +8°C° 0 mm 3 mps 757 mmHg 90%
    20:00 +8°C° 0 mm 3 mps 757 mmHg 91%
    21:00 +8°C° 0 mm 3 mps 757 mmHg 92%
    22:00 +8°C° 0 mm 3 mps 757 mmHg 93%
    23:00 +8°C° 0 mm 3 mps 757 mmHg 94%

    22 March, Friday

    Time Temperature Precipitation Wind Pressure Humidity
    00:00 +8°C° 0 mm 3 mps 756 mmHg 94%
    01:00 +8°C° 0 mm 2 mps 756 mmHg 95%
    02:00 +8°C° 0 mm 3 mps 756 mmHg 94%
    03:00 +8°C° 0 mm 3 mps 756 mmHg 94%
    04:00 +8°C° 0 mm 3 mps 755 mmHg 94%
    05:00 +8°C° 0 mm 4 mps 755 mmHg 91%
    06:00 +8°C° 0 mm 4 mps 755 mmHg 89%
    07:00 +8°C° 0 mm 5 mps 754 mmHg 87%
    08:00 +9°C° 0 mm 5 mps 754 mmHg 81%
    09:00 +10°C° 0 mm 6 mps 754 mmHg 76%
    10:00 +11°C° 0 mm 7 mps 753 mmHg 71%
    11:00 +10°C° 0.1 mm 7 mps 753 mmHg 74%
    12:00 +10°C° 0.1 mm 8 mps 753 mmHg 77%
    13:00 +9°C° 0.1 mm 8 mps 753 mmHg 80%
    14:00 +9°C° 0 mm 8 mps 753 mmHg 67%
    15:00 +8°C° 0 mm 9 mps 754 mmHg 55%
    16:00 +7°C° 0 mm 9 mps 754 mmHg 43%
    17:00 +6°C° 0 mm 8 mps 755 mmHg 46%
    18:00 +5°C° 0 mm 8 mps 755 mmHg 49%
    19:00 +4°C° 0 mm 7 mps 756 mmHg 52%
    20:00 +3°C° 0 mm 6 mps 757 mmHg 53%
    21:00 +3°C° 0 mm 5 mps 757 mmHg 55%
    22:00 +3°C° 0 mm 4 mps 758 mmHg 56%
    23:00 +3°C° 0 mm 4 mps 758 mmHg 61%

    23 March, Saturday

    Time Temperature Precipitation Wind Pressure Humidity
    00:00 +2°C° 0 mm 3 mps 758 mmHg 65%
    01:00 +3°C° 0 mm 2 mps 758 mmHg 69%
    02:00 +2°C° 0 mm 2 mps 758 mmHg 72%
    03:00 +2°C° 0 mm 2 mps 759 mmHg 75%
    04:00 +1°C° 0 mm 2 mps 759 mmHg 78%
    05:00 +2°C° 0 mm 1 mps 759 mmHg 77%
    06:00 +3°C° 0 mm 1 mps 759 mmHg 75%
    07:00 +3°C° 0 mm 1 mps 759 mmHg 74%
    08:00 +4°C° 0 mm 2 mps 759 mmHg 64%
    09:00 +5°C° 0 mm 2 mps 759 mmHg 55%
    10:00 +7°C° 0 mm 2 mps 759 mmHg 45%
    11:00 +8°C° 0 mm 3 mps 758 mmHg 41%
    12:00 +9°C° 0 mm 3 mps 757 mmHg 36%
    13:00 +11°C° 0 mm 4 mps 757 mmHg 32%
    14:00 +11°C° 0 mm 4 mps 756 mmHg 33%
    15:00 +11°C° 0 mm 4 mps 755 mmHg 34%
    16:00 +11°C° 0 mm 4 mps 754 mmHg 35%
    17:00 +10°C° 0 mm 4 mps 754 mmHg 38%
    18:00 +8°C° 0 mm 4 mps 753 mmHg 42%
    19:00 +8°C° 0 mm 3 mps 752 mmHg 46%
    20:00 +7°C° 0 mm 4 mps 752 mmHg 47%
    21:00 +7°C° 0 mm 4 mps 752 mmHg 49%
    22:00 +7°C° 0 mm 4 mps 751 mmHg 51%
    23:00 +7°C° 0 mm 4 mps 751 mmHg 59%
    Show more